| time (UTC) | temp C | wind direction | speed KPH | gust KPH | rain 1hr cm | rain 24hr cm | rain mn cm | humidity % | barometer mb |
| 20260508214729 | 27 | 174 | 6.4 | 19.3 | 0.00 | 0.00 | 0.00 | 72 | 1007.1 |
| 20260508213703 | 27 | 189 | 4.8 | 14.5 | 0.00 | 0.00 | 0.00 | 70 | 1007.2 |
| 20260508212711 | 27 | 145 | 4.8 | 16.1 | 0.00 | 0.00 | 0.00 | 71 | 1007.2 |
| 20260508210600 | 26 | 92 | 4.8 | 16.1 | 0.00 | 0.00 | 0.00 | 73 | 1007.6 |
| 20260508205528 | 26 | 126 | 4.8 | 12.9 | 0.00 | 0.00 | 0.00 | 73 | 1007.9 |
| 20260508204545 | 26 | 160 | 3.2 | 11.3 | 0.00 | 0.00 | 0.00 | 73 | 1007.9 |
| 20260508203554 | 26 | 136 | 4.8 | 12.9 | 0.00 | 0.00 | 0.00 | 73 | 1008.0 |
| 20260508202541 | 26 | 129 | 4.8 | 12.9 | 0.00 | 0.00 | 0.00 | 73 | 1008.1 |
| 20260508201524 | 26 | 56 | 3.2 | 17.7 | 0.00 | 0.00 | 0.00 | 73 | 1008.2 |
| 20260508200545 | 26 | 81 | 4.8 | 17.7 | 0.00 | 0.00 | 0.00 | 71 | 1008.3 |
| 20260508193228 | 26 | 112 | 3.2 | 12.9 | 0.00 | 0.00 | 0.00 | 71 | 1008.7 |
| 20260508185841 | 25 | 90 | 4.8 | 12.9 | 0.00 | 0.00 | 0.00 | 74 | 1009.0 |
| 20260508184855 | 25 | 142 | 3.2 | 12.9 | 0.00 | 0.00 | 0.00 | 72 | 1009.2 |
| 20260508183909 | 25 | 128 | 3.2 | 12.9 | 0.00 | 0.00 | 0.00 | 72 | 1009.2 |
| 20260508182914 | 25 | 195 | 3.2 | 14.5 | 0.00 | 0.00 | 0.00 | 71 | 1009.5 |
| 20260508181846 | 25 | 161 | 4.8 | 14.5 | 0.00 | 0.00 | 0.00 | 71 | 1009.7 |
| 20260508180857 | 25 | 152 | 3.2 | 12.9 | 0.00 | 0.00 | 0.00 | 73 | 1009.8 |
| 20260508175848 | 25 | 73 | 3.2 | 12.9 | 0.00 | 0.00 | 0.00 | 73 | 1010.0 |
| 20260508174906 | 25 | 47 | 1.6 | 6.4 | 0.00 | 0.00 | 0.00 | 72 | 1010.1 |
| 20260508173836 | 25 | 62 | 1.6 | 8.0 | 0.00 | 0.00 | 0.00 | 71 | 1010.1 |
| 20260508171716 | 26 | 71 | 0.0 | 3.2 | 0.00 | 0.00 | 0.00 | 70 | 1010.2 |
| 20260508170719 | 26 | 250 | 0.0 | 3.2 | 0.00 | 0.00 | 0.00 | 71 | 1010.3 |
| 20260508165702 | 26 | 165 | 0.0 | 4.8 | 0.00 | 0.00 | 0.00 | 72 | 1010.4 |
| 20260508164718 | 25 | 0 | 0.0 | 4.8 | 0.00 | 0.00 | 0.00 | 73 | 1010.5 |
| 20260508163643 | 25 | 287 | 0.0 | 4.8 | 0.00 | 0.00 | 0.00 | 72 | 1010.6 |
| 20260508162655 | 24 | 251 | 0.0 | 4.8 | 0.00 | 0.00 | 0.00 | 75 | 1010.8 |
| 20260508161628 | 23 | 254 | 0.0 | 4.8 | 0.00 | 0.00 | 0.00 | 76 | 1011.0 |
| 20260508160643 | 22 | 255 | 0.0 | 3.2 | 0.00 | 0.00 | 0.00 | 77 | 1011.2 |
| 20260508155653 | 21 | 97 | 0.0 | 0.0 | 0.00 | 0.00 | 0.00 | 79 | 1011.3 |
| 20260508154709 | 20 | 122 | 0.0 | 4.8 | 0.00 | 0.00 | 0.00 | 79 | 1011.4 |
| 20260508153722 | 20 | 173 | 0.0 | 4.8 | 0.00 | 0.00 | 0.00 | 78 | 1011.6 |
| 20260508152715 | 20 | 254 | 0.0 | 3.2 | 0.00 | 0.00 | 0.00 | 78 | 1011.8 |
| 20260508151652 | 20 | 212 | 0.0 | 6.4 | 0.00 | 0.00 | 0.00 | 78 | 1011.9 |
| 20260508150714 | 19 | 123 | 1.6 | 8.0 | 0.00 | 0.00 | 0.00 | 79 | 1012.0 |
| 20260508145735 | 19 | 195 | 1.6 | 8.0 | 0.00 | 0.00 | 0.00 | 79 | 1012.2 |
| 20260508144724 | 18 | 146 | 0.0 | 4.8 | 0.00 | 0.00 | 0.00 | 80 | 1012.1 |
| 20260508142556 | 17 | 123 | 1.6 | 6.4 | 0.00 | 0.00 | 0.00 | 80 | 1012.1 |
| 20260508141522 | 17 | 89 | 1.6 | 8.0 | 0.00 | 0.00 | 0.00 | 82 | 1012.0 |
| 20260508135417 | 17 | 10 | 0.0 | 6.4 | 0.00 | 0.00 | 0.00 | 82 | 1012.0 |
| 20260508134345 | 17 | 63 | 0.0 | 6.4 | 0.00 | 0.00 | 0.00 | 82 | 1012.1 |
| 20260508133324 | 17 | 38 | 1.6 | 9.7 | 0.00 | 0.00 | 0.00 | 83 | 1012.0 |
| 20260508132313 | 16 | 58 | 1.6 | 9.7 | 0.00 | 0.00 | 0.00 | 83 | 1012.0 |
| 20260508131311 | 16 | 51 | 0.0 | 4.8 | 0.00 | 0.00 | 0.00 | 84 | 1012.2 |
| 20260508130244 | 16 | 355 | 1.6 | 8.0 | 0.00 | 0.00 | 0.00 | 84 | 1012.1 |
| 20260508125254 | 16 | 347 | 0.0 | 8.0 | 0.00 | 0.00 | 0.00 | 85 | 1012.2 |
| 20260508124258 | 16 | 42 | 0.0 | 3.2 | 0.00 | 0.00 | 0.00 | 86 | 1012.3 |
| 20260508122047 | 16 | 13 | 0.0 | 4.8 | 0.00 | 0.00 | 0.00 | 86 | 1012.2 |
| 20260508121108 | 16 | 355 | 0.0 | 1.6 | 0.00 | 0.00 | 0.00 | 86 | 1012.3 |
| 20260508120131 | 16 | 51 | 0.0 | 0.0 | 0.00 | 0.00 | 0.00 | 86 | 1012.4 |
| 20260508115147 | 16 | 33 | 0.0 | 3.2 | 0.00 | 0.00 | 0.00 | 85 | 1012.5 |
| 20260508114116 | 16 | 5 | 0.0 | 3.2 | 0.00 | 0.00 | 0.00 | 84 | 1012.7 |
| 20260508113101 | 16 | 330 | 0.0 | 0.0 | 0.00 | 0.00 | 0.00 | 83 | 1012.7 |
| 20260508112123 | 16 | 330 | 0.0 | 0.0 | 0.00 | 0.00 | 0.00 | 83 | 1012.8 |
| 20260508111137 | 16 | 330 | 0.0 | 0.0 | 0.00 | 0.00 | 0.00 | 82 | 1012.7 |
| 20260508110109 | 16 | 330 | 0.0 | 0.0 | 0.00 | 0.00 | 0.00 | 82 | 1012.7 |
| 20260508105049 | 16 | 11 | 0.0 | 6.4 | 0.00 | 0.00 | 0.00 | 82 | 1012.5 |
| 20260508104023 | 16 | 13 | 1.6 | 6.4 | 0.00 | 0.00 | 0.00 | 83 | 1012.6 |
| 20260508103014 | 16 | 355 | 1.6 | 11.3 | 0.00 | 0.00 | 0.00 | 83 | 1012.5 |
| 20260508101949 | 16 | 350 | 1.6 | 11.3 | 0.00 | 0.00 | 0.00 | 83 | 1012.6 |
| 20260508100925 | 16 | 28 | 1.6 | 6.4 | 0.00 | 0.00 | 0.00 | 84 | 1012.4 |
| 20260508095918 | 16 | 355 | 0.0 | 4.8 | 0.00 | 0.00 | 0.00 | 85 | 1012.3 |
| 20260508094930 | 16 | 9 | 0.0 | 4.8 | 0.00 | 0.00 | 0.00 | 85 | 1012.7 |
| 20260508093950 | 16 | 24 | 0.0 | 4.8 | 0.00 | 0.00 | 0.00 | 85 | 1012.4 |
| 20260508092926 | 16 | 10 | 0.0 | 3.2 | 0.00 | 0.00 | 0.00 | 84 | 1012.7 |
| 20260508084403 | 16 | 26 | 0.0 | 0.0 | 0.00 | 0.00 | 0.00 | 81 | 1012.4 |
| 20260508083405 | 16 | 26 | 0.0 | 0.0 | 0.00 | 0.00 | 0.00 | 81 | 1012.6 |
| 20260508082345 | 16 | 26 | 0.0 | 0.0 | 0.00 | 0.00 | 0.00 | 80 | 1012.6 |
| 20260508081358 | 16 | 37 | 0.0 | 0.0 | 0.00 | 0.00 | 0.00 | 80 | 1012.8 |
| 20260508080409 | 16 | 37 | 0.0 | 0.0 | 0.00 | 0.00 | 0.00 | 80 | 1012.9 |
| 20260508075406 | 16 | 37 | 0.0 | 0.0 | 0.00 | 0.00 | 0.00 | 80 | 1012.9 |
| 20260508074337 | 16 | 37 | 0.0 | 0.0 | 0.00 | 0.00 | 0.00 | 80 | 1012.6 |
| 20260508073334 | 16 | 37 | 0.0 | 0.0 | 0.00 | 0.00 | 0.00 | 80 | 1012.9 |
| 20260508072318 | 16 | 91 | 0.0 | 4.8 | 0.00 | 0.00 | 0.00 | 79 | 1012.8 |
| 20260508071315 | 16 | 22 | 0.0 | 3.2 | 0.00 | 0.00 | 0.00 | 80 | 1012.8 |
| 20260508070337 | 16 | 49 | 0.0 | 4.8 | 0.00 | 0.00 | 0.00 | 80 | 1012.7 |
| 20260508065337 | 16 | 17 | 0.0 | 4.8 | 0.00 | 0.00 | 0.00 | 80 | 1012.7 |
| 20260508064351 | 16 | 53 | 0.0 | 3.2 | 0.00 | 0.00 | 0.00 | 81 | 1012.9 |
| 20260508063322 | 16 | 38 | 0.0 | 0.0 | 0.00 | 0.00 | 0.00 | 81 | 1013.5 |
| 20260508062305 | 16 | 38 | 0.0 | 1.6 | 0.00 | 0.00 | 0.00 | 80 | 1013.7 |
| 20260508061254 | 16 | 38 | 0.0 | 0.0 | 0.00 | 0.00 | 0.00 | 80 | 1013.6 |
| 20260508060317 | 16 | 46 | 0.0 | 0.0 | 0.00 | 0.00 | 0.00 | 80 | 1013.5 |
| 20260508055257 | 16 | 42 | 0.0 | 4.8 | 0.00 | 0.00 | 0.00 | 80 | 1013.3 |
| 20260508054230 | 16 | 45 | 0.0 | 3.2 | 0.00 | 0.00 | 0.00 | 80 | 1013.3 |
| 20260508053155 | 16 | 5 | 0.0 | 0.0 | 0.00 | 0.00 | 0.00 | 81 | 1013.7 |
| 20260508052148 | 16 | 24 | 0.0 | 0.0 | 0.00 | 0.00 | 0.00 | 80 | 1013.7 |
| 20260508051125 | 16 | 5 | 0.0 | 6.4 | 0.00 | 0.00 | 0.00 | 80 | 1013.6 |
| 20260508050149 | 16 | 317 | 0.0 | 6.4 | 0.00 | 0.00 | 0.00 | 80 | 1013.6 |
| 20260508045142 | 16 | 38 | 0.0 | 8.0 | 0.00 | 0.00 | 0.00 | 80 | 1013.5 |
| 20260508044151 | 16 | 37 | 1.6 | 8.0 | 0.00 | 0.00 | 0.00 | 79 | 1014.0 |
| 20260508043121 | 16 | 309 | 0.0 | 4.8 | 0.00 | 0.00 | 0.00 | 80 | 1014.0 |
| 20260508040951 | 16 | 34 | 0.0 | 4.8 | 0.00 | 0.00 | 0.00 | 79 | 1013.4 |
| 20260508035923 | 16 | 17 | 0.0 | 0.0 | 0.00 | 0.00 | 0.00 | 79 | 1013.7 |
| 20260508034901 | 16 | 17 | 0.0 | 0.0 | 0.00 | 0.00 | 0.00 | 78 | 1014.1 |
| 20260508033856 | 16 | 65 | 0.0 | 0.0 | 0.00 | 0.00 | 0.00 | 78 | 1013.9 |
| 20260508032910 | 16 | 20 | 0.0 | 1.6 | 0.00 | 0.00 | 0.00 | 77 | 1014.2 |
| 20260508030726 | 16 | 101 | 0.0 | 0.0 | 0.00 | 0.00 | 0.00 | 77 | 1014.6 |
| 20260508025705 | 16 | 101 | 0.0 | 0.0 | 0.00 | 0.00 | 0.00 | 76 | 1014.5 |
| 20260508024643 | 17 | 101 | 0.0 | 0.0 | 0.00 | 0.00 | 0.00 | 75 | 1013.9 |
| 20260508022433 | 17 | 102 | 0.0 | 0.0 | 0.00 | 0.00 | 0.00 | 72 | 1013.0 |
| 20260508021400 | 17 | 62 | 1.6 | 9.7 | 0.00 | 0.00 | 0.00 | 72 | 1012.1 |
| 20260508020346 | 17 | 98 | 0.0 | 6.4 | 0.00 | 0.00 | 0.00 | 71 | 1012.1 |
| 20260508015342 | 17 | 74 | 1.6 | 11.3 | 0.00 | 0.00 | 0.00 | 70 | 1012.2 |
| 20260508013218 | 17 | 61 | 3.2 | 11.3 | 0.00 | 0.00 | 0.00 | 69 | 1012.0 |
| 20260508012153 | 18 | 74 | 1.6 | 14.5 | 0.00 | 0.00 | 0.00 | 69 | 1012.5 |
| 20260508011126 | 18 | 40 | 1.6 | 14.5 | 0.00 | 0.00 | 0.00 | 69 | 1012.5 |
| 20260508010112 | 18 | 45 | 3.2 | 9.7 | 0.00 | 0.00 | 0.00 | 69 | 1012.8 |
| 20260508005056 | 18 | 346 | 3.2 | 14.5 | 0.00 | 0.00 | 0.00 | 68 | 1011.9 |
| 20260508004053 | 18 | 32 | 4.8 | 14.5 | 0.00 | 0.00 | 0.00 | 67 | 1012.3 |
| 20260508003034 | 19 | 65 | 1.6 | 4.8 | 0.00 | 0.00 | 0.00 | 68 | 1012.6 |
| 20260508002023 | 19 | 91 | 1.6 | 9.7 | 0.00 | 0.00 | 0.00 | 67 | 1012.8 |
| 20260508001009 | 19 | 88 | 1.6 | 9.7 | 0.00 | 0.00 | 0.00 | 65 | 1013.1 |
| 20260508000018 | 20 | 87 | 0.0 | 9.7 | 0.00 | 0.00 | 0.00 | 64 | 1013.0 |
| 20260507235031 | 20 | 63 | 1.6 | 11.3 | 0.00 | 0.00 | 0.00 | 63 | 1013.6 |
| 20260507234039 | 20 | 50 | 3.2 | 11.3 | 0.00 | 0.00 | 0.00 | 61 | 1013.8 |
| 20260507233038 | 21 | 74 | 3.2 | 11.3 | 0.00 | 0.00 | 0.00 | 60 | 1013.7 |
| 20260507232012 | 21 | 46 | 1.6 | 12.9 | 0.00 | 0.00 | 0.00 | 62 | 1013.7 |
| 20260507230943 | 20 | 34 | 3.2 | 12.9 | 0.00 | 0.00 | 0.00 | 62 | 1013.7 |
| 20260507225909 | 20 | 88 | 1.6 | 11.3 | 0.00 | 0.00 | 0.00 | 62 | 1013.6 |
| 20260507224932 | 20 | 64 | 3.2 | 12.9 | 0.00 | 0.00 | 0.00 | 61 | 1013.9 |
| 20260507223903 | 20 | 5 | 4.8 | 16.1 | 0.00 | 0.00 | 0.00 | 62 | 1014.2 |
| 20260507222921 | 20 | 355 | 4.8 | 16.1 | 0.00 | 0.00 | 0.00 | 65 | 1014.2 |
| 20260507221927 | 20 | 355 | 3.2 | 12.9 | 0.00 | 0.00 | 0.00 | 64 | 1014.2 |
| 20260507220910 | 20 | 342 | 3.2 | 14.5 | 0.00 | 0.00 | 0.00 | 64 | 1014.4 |